Location: Unspecified
(51.5147°N, 7.4673°E)
Time: 03:47:12
(UTC+01:00)

Vanguard 1 Rocket - Pass Details

Date: 19 February 2026
Orbit: 653 x 4214 km, 34.3° (Epoch: 8 March)

Event Time Altitude Azimuth Distance (km) Brightness Sun altitude
Rises 21:23:01 0° 270° (W) 7,250 12.9 -32.7°
Reaches altitude 10° 21:33:36 10° 245° (WSW) 6,961 12.2 -34.2°
Maximum altitude 21:39:54 12° 229° (SW) 7,080 12.1 -35.0°
Drops below altitude 10° 21:46:36 10° 214° (SSW) 7,387 12.0 -35.9°
Sets 21:59:34 0° 188° (S) 8,312 12.1 -37.6°
